Location: *
(53.9002°N, 27.5624°E)
Time: 09:17:48
(UTC+00:00)

IRS-1C Rocket - Pass Details

Date: 12 November 2019
Orbit: 800 x 806 km, 99.0° (Epoch: 05 December)

Event Time Altitude Azimuth Distance (km) Brightness Sun altitude
Rises 14:47:16 0° 152° (SSE) 3,312 7.2 -4.9°
Reaches altitude 10° 14:49:36 10° 150° (SSE) 2,385 6.5 -5.2°
Maximum altitude 14:54:50 67° 69° (ENE) 877 4.1 -5.9°
Drops below altitude 10° 15:00:05 10° 348° (NNW) 2,401 6.5 -6.6°
Sets 15:02:27 0° 346° (NNW) 3,335 7.2 -7.0°
